Showing default

EXACTVIEW-1, 38709

Orbit data source: Space-Track

EXACTVIEW-1, 38709 is a payload satellite owned by exactEarth (CA) in SSO that was launched on Sun, 22 Jul 2012 UTC via a SOYUZ-FG launch vehicle from the Tyuratam Missile And Space Complex (TTMTR). Payload-class satellites include a variety of spacecraft equipped with specific instruments for various scientific and technological missions. These include communications satellites like Starlink; space stations such as the ISS; scientific satellites like the Hubble; Earth observation satellites from companies like Planet Labs, Umbra, and HawkEye 360; GPS; miniature CubeSats for education and research; and military/defense satellites.

Loading next visibility...
Identifier
38709, 2012-039C
Orbit
SSO
Country
Flag of CACA
Related business
Manufacturer
SSTL (Astrium)
Mission
Operational Civil Communications
Bus & Motor
SSTL-100, Unknown motor
Mass
95 kg wet, 95 kg dry
Launch date (UTC)
2012-07-22 (14 years ago)
Launch vehicle
SOYUZ-FG
Launch site
Tyuratam Missile And Space Complex (TTMTR)
Object type
Payload
Rocket body
Debris
Shape & HBR
Box + 1 Pan, 0.5 m
Radar Cross Section
0.591 m², Medium (>0.1 m² and < 1m²)

Expand to show TLE details & history
Last TLE update: 2 days ago

TLE from 2 days ago
0 EXACTVIEW-1
1 38709U 12039C   26171.33029843  .00000089  00000-0  57653-4 0  9998
2 38709  98.9781 288.7915 0011328 157.6726 202.4948 14.24985343723150
Epoch: 2026-06-20T07:55Z
TLE epoch observation values (Epoch: 2026-06-20T07:55:37.784Z)
Latitude
0.00002°
Longitude
-98.66241°
Altitude
818.979 km
Speed
7.44 km/s
True Right ascension
19h 15m 09s
True Declination
0° 00' 00"
Sunlit
Object was in full shadow at epoch
Visualization orbit readout
Latitude
Unknown
Longitude
Unknown
Altitude
Unknown
Speed
Unknown
Apparent Right ascension
Unknown
Apparent Declination
Unknown
Sunlit
N/A
Visualization observer readout
Local Sidereal Time
00:50:07
Azimuth
Unknown
Elevation
Unknown
Doppler factor
Unknown
Orbital elements
Apogee altitude
813.845 km
Perigee altitude
797.569 km
Semi-major axis
7,183.844 km
Eccentricity
0.00113
Inclination
98.9781°
RAAN
288.7915°
Arg. of periapsis
157.6726°
True anomaly
202.4452°
Mean anomaly
202.4948°
Eccentric anomaly
202.46999°
Mean motion
3.56458 °/min
Orbital period
100.99 mins
BSTAR
0.000057653
Loading maneuver chart data...
Computing Atmospheric mass density...
Loading historical data...
Loading historical data...
Loading historical data...
Loading historical data...
Loading historical data...
Loading historical data...
Loading historical data...

Documentation

Showing up to 5 results
|